{"data":{"norad_id":63806,"intl_designator":"2025-092C","name":"STARLINK-34102","alt_names":[],"object_type":"PAYLOAD","status":"ACTIVE","operator":null,"country":"US","launch_date":"2025-05-04","launch_site_code":"AFETR","launch_vehicle":null,"mission":null,"orbit_class":"UNKNOWN","rcs_meters":null,"size_class":null,"mass_kg":null,"dimensions":null,"purposes":["comms"],"wikipedia_slug":null,"has_3d_model":false,"image_url":null,"decayed_at":null,"tle_current":{"epoch":"2026-09-20T22:51:42.649344Z","epoch_age_seconds":110743,"freshness":"FRESH","line1":"1 63806U 25092C   26263.95257696  .00011716  00000+0  43426-3 0  9996","line2":"2 63806  43.0014 150.1460 0001216 261.2475  98.8239 15.27605239 78522","mean_motion":15.27605239,"eccentricity":0.0001216,"inclination_deg":43.0014,"raan_deg":150.146,"arg_perigee_deg":261.2475,"mean_anomaly_deg":98.8239,"bstar":0.00043426,"rev_number":7852,"period_min":94.265191244215,"perigee_km":482.13921139498,"apogee_km":483.80783347403,"semimajor_km":6861.1105224345,"source":"CELESTRAK","updated_at":"2026-09-21T09:00:35.104297Z"}}}